Showing default

FLOCK 4G 35, 62683

Orbit data source: Space-Track

FLOCK 4G 35, 62683 is a payload satellite owned by Planet (US) in SSO that was launched on Tue, 14 Jan 2025 UTC via an FALCON 9 launch vehicle from the Air Force Western Test Range (AFWTR). Payload-class satellites include a variety of spacecraft equipped with specific instruments for various scientific and technological missions. These include communications satellites like Starlink; space stations such as the ISS; scientific satellites like the Hubble; Earth observation satellites from companies like Planet Labs, Umbra, and HawkEye 360; GPS; miniature CubeSats for education and research; and military/defense satellites.

Loading next visibility...
Identifier
62683, 2025-009CC
Orbit
SSO
Country
Flag of USUS
Related business
Manufacturer
Planet
Mission
Non-operational Commercial Imaging
Bus & Motor
CUBESAT 3U, Unknown motor
Mass
5.7 kg wet, 5.7 kg dry
Launch date (UTC)
2025-01-14 (1 year ago)
Launch vehicle
FALCON 9
Launch site
Air Force Western Test Range (AFWTR)
Object type
Payload
Rocket body
Debris
Shape & HBR
Box + 2 Pan, 1.0 m
Radar Cross Section
0.072 m², Medium (>0.1 m² and < 1m²)

Expand to show TLE details & history
Last TLE update: 21 hours ago

TLE from 21 hours ago
0 FLOCK 4G 35
1 62683U 25009CC  26034.21830319  .00033780  00000-0  11165-2 0  9990
2 62683  97.4088 117.2344 0004917  77.1169 283.0621 15.31283473116116
Epoch: 2026-02-03T05:14Z
TLE epoch observation values (Epoch: 2026-02-03T05:14:21.395Z)
Latitude
-0.00006°
Longitude
-94.75713°
Altitude
474.328 km
Speed
7.629 km/s
True Right ascension
07h 48m 56s
True Declination
0° 00' 00"
Sunlit
Object was in full shadow at epoch
Visualization orbit readout
Latitude
Unknown
Longitude
Unknown
Altitude
Unknown
Speed
Unknown
Apparent Right ascension
Unknown
Apparent Declination
Unknown
Sunlit
N/A
Visualization observer readout
Local Sidereal Time
04:12:01
Azimuth
Unknown
Elevation
Unknown
Doppler factor
Unknown
Orbital elements
Apogee altitude
472.3 km
Perigee altitude
465.566 km
Semi-major axis
6,847.07 km
Eccentricity
0.00049
Inclination
97.4088°
RAAN
117.2344°
Arg. of periapsis
77.1169°
True anomaly
283.00721°
Mean anomaly
283.0621°
Eccentric anomaly
283.03465°
Mean motion
3.83077 °/min
Orbital period
93.98 mins
BSTAR
0.0011165
Loading maneuver chart data...
Computing Atmospheric mass density...
Loading historical data...
Loading historical data...
Loading historical data...
Loading historical data...
Loading historical data...
Loading historical data...
Loading historical data...

Documentation

Showing up to 5 results
|